Regional Weather Roundup
Issued by NWS

Home | Current Version | Previous Version | Graphics & Text | Print | Product List | Glossary On
Versions: 1 2 3 4 5 6 7 8 9 10 11 12 13 14 15 16 17 18 19 20 21 22 23 24 25 26 27
000
ASUS45 KBOU 231107
RWRCO

WEATHER ROUNDUP FOR COLORADO
NATIONAL WEATHER SERVICE DENVER/BOULDER CO
500 AM MDT SAT SEP 23 2017

NOTE: "FAIR" INDICATES FEW OR NO CLOUDS BELOW 12000 FEET WITH NO
SIGNIFICANT WEATHER AND/OR OBSTRUCTIONS TO VISIBILITY.

COZ001>005-013-030-031-231200-
...NORTHWEST COLORADO...

CITY           SKY/WX    TMP DP  RH WIND       PRES   REMARKS
CRAIG          LGT RAIN  42  38  85 NW6       29.97R
HAYDEN         LGT RAIN  40  38  93 NW3       29.98S
MEEKER         LGT RAIN  46  44  93 CALM      29.93F
RABBIT EARS PA FAIR      37  32  81 S8        30.10R
STEAMBOAT SPGS CLOUDY    41  38  90 CALM      29.97R
WALDEN         FAIR      34  32  93 CALM      30.02S
$$

COZ006>008-011-231200-
...WEST CENTRAL VALLEYS...

CITY           SKY/WX    TMP DP  RH WIND       PRES   REMARKS
GRAND JUNCTION LGT RAIN  58  41  53 SE18G26   29.83F
MONTROSE       LGT RAIN  53  46  77 N9        29.91R
EAGLE          CLOUDY    46  39  76 E3        29.97R
RIFLE          MOCLDY    56  42  59 NW3       29.89S
DELTA          NOT AVBL
NUCLA          LGT RAIN  50  45  81 E8        29.93F
$$

COZ017>023-064>068-231200-
...SOUTHWEST COLORADO...

CITY           SKY/WX    TMP DP  RH WIND       PRES   REMARKS
DURANGO        MOCLDY    50  45  83 E7        29.92F
CORTEZ         HVY RAIN  50  45  83 S7        29.90R
PAGOSA SPRINGS MOCLDY    48  47  97 CALM      30.01F
TELLURIDE      MOCLDY    48  38  68 E3        30.01F
WOLF CREEK PAS FOG       34  34 100 S18G30    30.23S VSB 1   WCI  23
$$

COZ009-010-012-014-032>034-037-058>063-231200-
...CENTRAL COLORADO...

CITY           SKY/WX    TMP DP  RH WIND       PRES   REMARKS
ASPEN          LGT RAIN  54  37  52 SE14G23   29.96S
BUENA VISTA    CLOUDY    46  44  92 CALM      30.04F
COPPER MTN     CLOUDY    37  32  81 S16       30.20R
BERTHOUD PASS  FLURRIES  34  27  75 S36G51    30.20S WCI  19
COTTONWOOD PAS CLOUDY    45  45 100 S3        30.12F
GUNNISON       LGT RAIN  48  39  71 CALM      30.00F
KREMMLING      FAIR      37  34  87 CALM      30.00R
LEADVILLE      CLOUDY    39  36  89 SE6       30.09S
MONARCH PASS   FOG       34  34 100 SW21      30.30F VSB 1/4 WCI  22
SALIDA         FAIR      48  44  87 W3        30.09F
SUNLIGHT       CLOUDY    34  32  93 S8        30.13S WCI  27
WILKERSON PASS CLOUDY    36  34  93 S9G18     30.21F FOG
$$

COZ069>075-231200-
...SAN LUIS VALLEY/SANGRE DE CRISTO MOUNTAINS...

CITY           SKY/WX    TMP DP  RH WIND       PRES   REMARKS
ALAMOSA        MOCLDY    43  42  97 CALM      30.03F
DEL NORTE      FAIR      42  40  93 NW7       30.03F
LA VETA PASS   FAIR      45  34  65 S9G16     30.27F
SAGUACHE       FAIR      43  41  93 N7        30.04F
$$

COZ035-036-038>040-231200-
...NORTHERN COLORADO FRONT RANGE...

CITY           SKY/WX    TMP DP  RH WIND       PRES   REMARKS
DENVER INTL AP MOCLDY    47  40  76 N5        29.98S
DMNS CITY PARK   N/A     49  38  66 N6G13     29.99R
AURORA         MOCLDY    46  40  81 E8        30.00R
FRONT RANGE AP FAIR      45  43  93 N5        30.00S
ERIE MUNI ARPT FAIR      47  40  75 CALM      30.04R
BOULDER MUN AP MOCLDY    46  39  76 CALM      30.00R
CENTENNIAL     MOCLDY    49  39  68 N5        29.99R
BROOMFIELD     FAIR      46  37  71 N7        30.01R
FORT COLLINS   MOCLDY    49  40  71 NE8       30.00S
LONGMONT       MOCLDY    51  41  70 N3        30.00S
$$

COZ041-046-047-076>085-087-088-231200-
...PIKES PEAK/PALMER DIVIDE AND SOUTHERN FOOTHILLS...

CITY           SKY/WX    TMP DP  RH WIND       PRES   REMARKS
COLO. SPRINGS  FAIR      52  40  63 NW5       29.97S
A. F. ACADEMY  FAIR      47  36  66 N9        29.98S
SCHRIEVER AFB  FAIR      50  37  60 MISG      29.96F
CHEYENNE MTN   FAIR      55  38  51 CALM      29.94S
ELLICOTT         N/A    N/A N/A N/A NE6       29.95R
FALCON         FAIR      49  36  61 N10G16    30.00S
FORT CARSON    FAIR      52  38  58 NW9       29.94R
LIMON            N/A    N/A N/A N/A MISG      29.96S
MONUMENT HILL  FAIR      41  37  87 NE3       30.04R
CANON CITY     PTCLDY    61  43  51 CALM      29.90F
WALSENBURG     NOT AVBL
TRINIDAD       FAIR      69  55  60 S18G31    29.92F
$$

COZ042>045-048>051-090-091-231200-
...NORTHEAST COLORADO...

CITY           SKY/WX    TMP DP  RH WIND       PRES   REMARKS
GREELEY ARPT   MOCLDY    49  41  74 NE13      30.00R
AKRON          CLOUDY    45  40  82 N12       29.96R
BURLINGTON     FAIR      58  50  75 NW10      29.90R
WRAY           CLOUDY    50  50 100 N10       29.90R
YUMA           CLOUDY    46  43  87 NW10G16   29.93R
STERLING       CLOUDY    46  41  81 N6        29.96R
HOLYOKE        CLOUDY    54  48  82 N14       29.92S
FORT MORGAN    CLOUDY    49  39  69 N9        29.98R
$$

COZ086-089-092>099-231200-
...SOUTHEAST COLORADO...

CITY           SKY/WX    TMP DP  RH WIND       PRES   REMARKS
PUEBLO         FAIR      57  40  52 CALM      29.89R
LA JUNTA       FAIR      62  47  57 N8        29.86R
LAMAR          FAIR      71  61  70 S20G26    29.80S
SPRINGFIELD      N/A     62  62 100 S14       29.91S
$$




USA.gov is the U.S. government's official web portal to all federal, state and local government web resources and services.